Starlink 3856

operational
NORAD ID: 52459 Int'l Des: 2022-049 Owner: SPXS Country: US Constellation: starlink
LEOCIRCULAR

Über Starlink 3856

Beschreibung wird geladen...

Live-Position

3D-Globus wird geladen...

Nächste Überflüge

Höhenverlauf

Altitude vs Time

uPlot chart will show altitude changes over time

Zweizeiliger Elementsatz

1 52459U 22049J 25351.20715695 .00000529 00000-0 51308-4 0 9990
2 52459 53.2173 69.3990 0001172 95.9937 264.1189 15.08843644199796
Epoch: 17. Dez. 2025 • Age: 14 hours

Aktueller Status

Höhe 546.7 km
Geschwindigkeit 7.59 km/s
Subsatellitenpunkt -22.88°S, 34.52°E
Startdatum 6. Mai 2022
Alter 3.6 years
Typ internet

Technische Details

Klassifizierung Payload
Masse 297.00 kg
Trockenmasse 220.00 kg
Gesamtmasse 297.00 kg
Länge 0.20 m
Durchmesser 2.80 m
Spannweite 9.00 m
Form Box + pan
Hersteller SPXS
Bus-Typ Starlink
Phasenstatus In Orbit
Besitzer/Staat SPXS/US

Große Konstellationen

Loading constellations...